Location: Flitcham
(52.8000°N, 0.5667°E)
Time: 11:48:44
(UTC+00:00)

Cosmos 1898 Rocket - Pass Details

Date: 15 May 2026
Orbit: 750 x 778 km, 74.0° (Epoch: 6 June)

Event Time Altitude Azimuth Distance (km) Brightness Sun altitude
Rises 22:54:32 0° 332° (NNW) 3,217 8.3 -17.0°
Reaches altitude 10° 22:56:55 10° 330° (NNW) 2,291 7.2 -17.1°
Maximum altitude 23:02:04 69° 249° (WSW) 815 3.5 -17.3°
Enters shadow 23:04:34 31° 174° (S) 1,320 4.1 -17.4°
